Regional Weather Roundup
Issued by NWS Boston, MA

Home | Current Version | Previous Version | Text Only | Print | Product List | Glossary On
Versions: 1 2 3 4 5 6 7 8 9 10 11 12 13 14 15 16 17 18 19 20 21 22 23 24 25 26 27 28 29 30 31 32 33 34 35 36 37 38 39 40 41 42 43 44 45 46 47 48 49 50
000
ASUS41 KBOX 010710
RWRBOX

REGIONAL WEATHER ROUNDUP
NATIONAL WEATHER SERVICE TAUNTON MA
200 AM EST SUN FEB 01 2015

NOTE:  "FAIR" INDICATES FEW OR NO CLOUDS BELOW 12,000 FEET WITH NO
SIGNIFICANT WEATHER AND/OR OBSTRUCTIONS TO VISIBILITY.  THE FOLLOWING
OBSERVATION LOCATIONS DO NOT REPORT PRESENT WEATHER...PROVINCETOWN...
SMITHFIELD...BLOCK ISLAND...KEENE...AND OXFORD.

MAZALL-010800-
EASTERN MASSACHUSETTS

CITY           SKY/WX    TMP DP  RH WIND       PRES   REMARKS
BOSTON         CLEAR     14  -6  40 W20G28    30.06R WCI  -3
BEVERLY        CLEAR     13  -8  39 W13       30.03R WCI  -2
LAWRENCE       CLEAR     10  -7  46 W7        30.06R WCI  -1
BEDFORD        CLEAR     10  -9  42 W7        30.06R WCI  -1
BLUE HILL        N/A     10  -5  50 W20G26    30.00R WCI  -9
NORWOOD        CLEAR     13  -6  42 W12       30.08R WCI  -1
MARSHFIELD     CLEAR     16  -6  38 W6        30.06R WCI   7
PLYMOUTH       CLEAR     12  -6  44 W8        30.05R WCI   0
TAUNTON        CLEAR     13  -5  44 W8        30.07R WCI   2
NEW BEDFORD    CLEAR     13  -3  49 W14G22    30.07R WCI  -2
$$

MAZALL-010800-
CAPE COD AND THE ISLANDS

CITY           SKY/WX    TMP DP  RH WIND       PRES   REMARKS
FALMOUTH       CLEAR     14  -4  44 W16G23    30.04S WCI  -2
HYANNIS        CLEAR     14  -7  38 NW10G21   30.01S WCI   1
CHATHAM        FAIR      16  -2  45 NW12G25   30.01S WCI   3
PROVINCETOWN   CLEAR     19   7  58 NW25G33   30.01S WCI   2
NANTUCKET      CLEAR     20   2  45 NW25G32   30.03S WCI   2
MARTHAS VNYRD  CLEAR     16  -1  47 W15G23    30.06S WCI   1
$$

MAZALL-010800-
CENTRAL AND WESTERN MASSACHUSETTS

CITY           SKY/WX    TMP DP  RH WIND       PRES   REMARKS
WORCESTER      CLEAR    N/A N/A N/A W9        30.00R
FITCHBURG      CLEAR     11  -6  46 W9        30.05R WCI  -2
ORANGE         CLEAR     -6 -10  83 CALM      30.05S
SPRINGFIELD    PTCLDY     1  -6  72 S5        30.09S WCI  -9
WESTFIELD      PTCLDY     5  -3  69 CALM      30.10R
NORTH ADAMS    PTCLDY     7  -1  70 W6        30.08S WCI  -3
PITTSFIELD     MOCLDY     8   3  80 S3        30.01S
$$

RIZALL-010800-
RHODE ISLAND

CITY           SKY/WX    TMP DP  RH WIND       PRES   REMARKS
PROVIDENCE     CLEAR     14  -2  49 W10       30.11R WCI   1
NEWPORT        CLEAR     15   1  53 NW17      30.09R WCI  -1
BLOCK ISLAND   CLEAR     19   7  58 NW17G32   30.10R WCI   4
SMITHFIELD     CLEAR     10  -6  48 W7        30.05R WCI   0
WESTERLY       CLEAR     13   1  59 W5        30.14R WCI   5
$$

CTZALL-010800-
CONNECTICUT

CITY           SKY/WX    TMP DP  RH WIND       PRES   REMARKS
BRADLEY INTL   PTCLDY    15   4  61 W8        30.12R WCI   4
HARTFORD       CLEAR     16   5  62 SW9       30.15R WCI   4
BRIDGEPORT     PTCLDY    15   5  64 W5        30.18R WCI   8
DANBURY        PTCLDY     3  -4  72 CALM      30.15R
GROTON         CLEAR     16   6  65 W15       30.14R WCI   1
NEW HAVEN      CLEAR     17   5  59 NW7       30.17R WCI   8
CHESTER        FAIR      12   3  67 W3        30.14R
MERIDEN        CLEAR      6   0  76 CALM      30.17R
WILLIMANTIC    PTCLDY     4  -3  73 CALM      30.12R
OXFORD         PTCLDY    10  -4  52 W3        30.12R
$$

MEZ002-015-021-024-NHZ003-005-008-011-012-014-VTZ005-008-010800-
NORTHERN NEW ENGLAND

CITY           SKY/WX    TMP DP  RH WIND       PRES   REMARKS
PORTLAND ME    CLEAR      5  -8  55 SW5       29.97R WCI  -4
BANGOR ME      CLEAR      5  -7  57 NW10      29.86R WCI -10
CONCORD NH     CLEAR     10  -6  48 NW10      30.01S WCI  -4
MANCHESTER NH  CLEAR     10  -7  46 NW5       30.02R WCI   2
NASHUA NH      CLEAR     12  -6  44 NW6       30.05R WCI   3
PORTSMOUTH NH  CLEAR     10  -9  42 W14G22    29.98R WCI  -6
JAFFREY NH     CLEAR     10  -4  53 VRB6      29.98S WCI   0
KEENE NH       PTCLDY     0  -8  71 S5        30.03F WCI -10
BURLINGTON VT  CLOUDY     5  -4  66 S5        30.10F WCI  -4
MT. WASHINGTON ICE FOG  -11 -11 100 NW72G83     N/A  VSB 1/16WCI -52
$$

NYZ052-076-010800-
EASTERN NEW YORK

CITY           SKY/WX    TMP DP  RH WIND       PRES   REMARKS
ALBANY         FLURRIES  15   6  67 NW6       30.14S WCI   6
NEW YORK CITY  MOCLDY    22   7  52 W12       30.20S WCI  10
$$

ANZALL-010800-
MARINE OBSERVATIONS

STATION/POSITION TIME  TEMP    WIND        PRES    VSBY  WAVE
                       AIR SEA DIR/SP/G                  HT/PER
                 (UTC) (F)     (DEG/KT/KT) (MB)    (MI)  (FT/S)
BOSTON BUOY      0650   19 40  290/ 23/ 29 1016.9R         5/ 4
BUZZARDS BAY     0600          300/ 28/ 31 1018.7R
NANTUCKET SOUND  NOT AVBL
MASS BAY-STELLWA 0604   18 41  290/ 25/ 31   N/A    1 7/8  4/ 4
ISLE OF SHOALS   0700   13     290/ 29/ 33 1013.7F
S OF BLOCK IS    0608      42                N/A           8/ 6
$$

......................KEY.........................
  SKY/WX - SKY CONDITION/PRESENT WEATHER
  TMP    - TEMPERATURE IN FAHRENHEIT
  DWPT   - DEWPOINT IN FAHRENHEIT
  RH     - RELATIVE HUMIDITY IN PERCENT
  WIND   - DIRECTION AND SPEED IN MPH
  PRES   - MEAN SEA LEVEL PRESSURE IN INCHES OF HG
  WCI    - WIND CHILL INDEX
  VSB    - VISIBILITY IN MILES
  HX     - HEAT INDEX
  TC     - TEMPERATURE IN CELSIUS
  VRB    - VARIABLE WIND DIRECTION
  N/A    - NOT AVAILABLE


USA.gov is the U.S. government's official web portal to all federal, state and local government web resources and services.